"SCET";"TARGET";"ELECTRON_DENSITY";"ERROR_FLAG";"ELECTRON_DENSITY_ERROR";"FREQ_FCE";"MEASURED_VALUE";"MEASURED_ITEM";"FREQ_PLASMA";"FREQ_UPPER_HYBRID";"FREQ_R_EQUALS_ZERO";"FREQ_L_EQUALS_ZERO";"ORBIT_NUMBER";"SATURN_RADIUS";"SATURN_IAU_LONGITUDE";"SATURN_SLS4_S_LONGITUDE";"SATURN_SLS4_N_LONGITUDE";"SATURN_SLS5_S_LONGITUDE";"SATURN_SLS5_N_LONGITUDE";"SATURN_LOCAL_TIME";"SATURN_KRONOGRAPHIC_LATITUDE";"SATURN_MAGNETIC_LATITUDE";"SATURN_L";"SATURN_L_OFFSET";"SATURN_SOLAR_EQUATORIAL_X";"SATURN_SOLAR_EQUATORIAL_Y";"SATURN_SOLAR_EQUATORIAL_Z";"SATURN_ALTITUDE";"ENCELADUS_ENCOUNTER_NUMBER";"ENCELADUS_RADIUS";"ENCELADUS_COROTATIONAL_X";"ENCELADUS_COROTATIONAL_Y";"ENCELADUS_COROTATIONAL_Z";"ENCELADUS_TRUE_ANOMALY";"ENCELADUS_PERIAPSIS_TIME";"JUPITER_RADIUS";"JUPITER_SYSTEMIII_LONGITUDE";"JUPITER_MAGNETIC_LATITUDE";"JUPITER_MAGNETIC_LOCAL_TIME";"JUPITER_L";"IO_PHASE";"EARTH_RADIUS";"EARTH_MAGNETIC_LATITUDE";"EARTH_LOCAL_TIME";"EARTH_L"
"[UTC]";"[0=Saturn, 1=Enceladus, 2=Jupiter, 3=Earth]";"[cm-3]";"[0=automated, 1=manual]";"[normalized density error]";"[Hz]";"[Hz]";"[0=upper hybrid frequency, 1=plasma frequency cutoff]";"[Hz]";"[Hz]";"[Hz]";"[Hz}";"[0, A, B, C, 3, 4, ... , 292, 293]";"[Rs where 1Rs=60268km]";"[degrees]";"[degrees]";"[degrees]";"[degrees]";"[degrees]";"[hours]";"[degrees]";"[degrees where offset=2293km north]";"[Rs where 1Rs=60268km]";"[Rs where 1Rs=60268km and offset=2293km north]";"[Rs where 1Rs=60268km]";"[Rs where 1Rs=60268km]";"[Rs where 1Rs=60268km]";"[km where ellipsoid a,b=60268km and c=54364km]";"[E0, E1, E2, ... , E21, E22]";"[Renc where 1Renc=252.1km]";"[Renc where 1Renc=252.1km]";"[Renc where 1Renc=252.1km]";"[Renc where 1Renc=252.1km]";"[degrees]";"[UTC]";"[Rj where 1Rj=71492km]";"[degrees]";"[degrees using JRM09 model]";"[hours using JRM09 model]";"[Rj where 1Rj=71492km]";"[degrees]";"[Re where 1Re=6378.1366km]";"[degrees]";"[hours]";"[Re where 1Re=6378.1366km]"
2005-05-20T19:46:52.215Z;0;1.0550e+00;0;     0.120;  1542.268;   9353.764; 0;   9225.741;   9353.764;  10029.047;   8486.779;  8;   7.522;  53.703;  58.345;;  67.836;  38.262;  13.128; -19.590; -19.863;   8.475;   7.527;   6.780;   2.062;  -2.522;;;;;;;;;;;;;;;;;;
2005-05-20T19:47:08.215Z;0;1.0510e+00;0;     0.123;  1542.268;   9333.204; 0;   9204.896;   9333.204;  10008.274;   8466.006;  8;   7.520;  53.835;  58.475;;  67.964;  38.396;  13.129; -19.587; -19.860;   8.472;   7.525;   6.777;   2.064;  -2.521;;;;;;;;;;;;;;;;;;
2005-05-20T19:47:24.215Z;0;1.0030e+00;0;     0.126;  1542.268;   9125.296; 0;   8994.022;   9125.296;   9798.153;   8255.886;  8;   7.518;  53.967;  58.605;;  68.092;  38.530;  13.130; -19.584; -19.857;   8.469;   7.523;   6.775;   2.065;  -2.520;;;;;;;;;;;;;;;;;;
2005-05-20T19:47:40.215Z;0;9.8890e-01;0;     0.106;  1542.268;   9062.108; 0;   8929.906;   9062.108;   9734.273;   8192.005;  8;   7.516;  54.099;  58.735;;  68.220;  38.664;  13.131; -19.581; -19.854;   8.466;   7.521;   6.773;   2.067;  -2.519;;;;;;;;;;;;;;;;;;
2005-05-20T19:47:56.215Z;0;9.8990e-01;0;     0.115;  1542.268;   9066.687; 0;   8934.552;   9066.687;   9738.902;   8196.634;  8;   7.513;  54.231;  58.865;;  68.347;  38.798;  13.133; -19.578; -19.851;   8.464;   7.519;   6.770;   2.069;  -2.518;;;;;;;;;;;;;;;;;;
2005-05-20T19:48:12.215Z;0;9.7480e-01;0;     0.131;  1550.108;   9000.581; 0;   8866.094;   9000.581;   9674.960;   8124.853;  8;   7.511;  54.363;  58.995;;  68.475;  38.932;  13.134; -19.575; -19.848;   8.461;   7.517;   6.768;   2.070;  -2.517;;;;;;;;;;;;;;;;;;
2005-05-20T19:48:28.215Z;0;9.5670e-01;0;     0.121;  1550.108;   8919.224; 0;   8783.491;   8919.224;   9592.674;   8042.566;  8;   7.509;  54.495;  59.126;;  68.603;  39.065;  13.135; -19.572; -19.845;   8.458;   7.514;   6.765;   2.072;  -2.515;;;;;;;;;;;;;;;;;;
2005-05-20T19:48:44.215Z;0;9.5430e-01;0;     0.111;  1550.108;   8908.286; 0;   8772.385;   8908.286;   9581.610;   8031.502;  8;   7.507;  54.627;  59.256;;  68.730;  39.199;  13.136; -19.569; -19.842;   8.456;   7.512;   6.763;   2.073;  -2.514;;;;;;;;;;;;;;;;;;
2005-05-20T19:49:16.214Z;0;9.8330e-01;0;     0.107;  1554.056;   9039.164; 0;   8904.571;   9039.164;   9715.438;   8161.382;  8;   7.503;  54.891;  59.516;;  68.985;  39.467;  13.139; -19.563; -19.836;   8.450;   7.508;   6.758;   2.077;  -2.512;;;;;;;;;;;;;;;;;;
2005-05-20T19:49:32.214Z;0;9.8230e-01;0;     0.106;  1554.056;   9034.963; 0;   8900.307;   9034.963;   9711.189;   8157.133;  8;   7.500;  55.023;  59.646;;  69.112;  39.601;  13.140; -19.560; -19.833;   8.447;   7.506;   6.755;   2.078;  -2.511;;;;;;;;;;;;;;;;;;
2005-05-20T19:49:48.214Z;0;9.8930e-01;0;     0.103;  1554.056;   9065.892; 0;   8931.702;   9065.892;   9742.466;   8188.410;  8;   7.498;  55.155;  59.776;;  69.239;  39.734;  13.141; -19.557; -19.830;   8.445;   7.504;   6.753;   2.080;  -2.510;;;;;;;;;;;;;;;;;;
2005-05-20T19:50:04.214Z;0;9.9830e-01;0;     0.099;  1559.264;   9107.053; 0;   8972.575;   9107.053;   9786.015;   8226.751;  8;   7.496;  55.287;  59.906;;  69.367;  39.868;  13.142; -19.554; -19.827;   8.442;   7.502;   6.750;   2.081;  -2.509;;;;;;;;;;;;;;;;;;
2005-05-20T19:50:20.214Z;0;1.0010e+00;0;     0.102;  1559.264;   9117.142; 0;   8982.815;   9117.142;   9796.217;   8236.952;  8;   7.494;  55.419;  60.036;;  69.497;  40.000;  13.144; -19.551; -19.824;   8.439;   7.499;   6.748;   2.083;  -2.508;;;;;;;;;;;;;;;;;;
2005-05-20T19:50:36.214Z;0;9.9100e-01;0;     0.101;  1559.264;   9074.626; 0;   8939.660;   9074.626;   9753.225;   8193.960;  8;   7.492;  55.550;  60.166;;  69.627;  40.132;  13.145; -19.548; -19.821;   8.436;   7.497;   6.745;   2.085;  -2.507;;;;;;;;;;;;;;;;;;
2005-05-20T19:50:52.214Z;0;9.7960e-01;0;     0.120;  1559.264;   9023.691; 0;   8887.953;   9023.691;   9701.713;   8142.449;  8;   7.490;  55.682;  60.296;;  69.757;  40.265;  13.146; -19.545; -19.818;   8.434;   7.495;   6.743;   2.086;  -2.506;;;;;;;;;;;;;;;;;;
2005-05-20T19:51:08.214Z;0;9.9700e-01;0;     0.101;  1564.920;   9102.143; 0;   8966.606;   9102.143;   9783.142;   8218.222;  8;   7.488;  55.814;  60.426;;  69.887;  40.397;  13.147; -19.541; -19.815;   8.431;   7.493;   6.740;   2.088;  -2.505;;;;;;;;;;;;;;;;;;
2005-05-20T19:51:24.214Z;0;9.9390e-01;0;     0.101;  1564.920;   9088.454; 0;   8952.710;   9088.454;   9769.299;   8204.379;  8;   7.485;  55.946;  60.556;;  70.017;  40.529;  13.148; -19.538; -19.812;   8.428;   7.491;   6.738;   2.089;  -2.503;;;;;;;;;;;;;;;;;;
2005-05-20T19:51:40.213Z;0;9.8850e-01;0;     0.109;  1564.920;   9064.123; 0;   8928.010;   9064.123;   9744.691;   8179.771;  8;   7.483;  56.078;  60.686;;  70.147;  40.661;  13.150; -19.535; -19.809;   8.425;   7.489;   6.736;   2.091;  -2.502;;;;;;;;;;;;;;;;;;
2005-05-20T19:51:56.213Z;0;9.9210e-01;0;     0.104;  1564.920;   9080.357; 0;   8944.491;   9080.357;   9761.110;   8196.190;  8;   7.481;  56.210;  60.816;;  70.277;  40.793;  13.151; -19.532; -19.806;   8.423;   7.487;   6.733;   2.093;  -2.501;;;;;;;;;;;;;;;;;;
2005-05-20T19:52:12.213Z;0;9.8500e-01;0;     0.106;  1570.408;   9049.816; 0;   8912.520;   9049.816;   9732.245;   8161.837;  8;   7.479;  56.342;  60.946;;  70.407;  40.924;  13.152; -19.529; -19.803;   8.420;   7.484;   6.731;   2.094;  -2.500;;;;;;;;;;;;;;;;;;
2005-05-20T19:52:28.213Z;0;9.6990e-01;0;     0.109;  1570.408;   8982.129; 0;   8843.781;   8982.129;   9663.773;   8093.366;  8;   7.477;  56.473;  61.076;;  70.538;  41.056;  13.153; -19.526; -19.800;   8.417;   7.482;   6.728;   2.096;  -2.499;;;;;;;;;;;;;;;;;;
2005-05-20T19:52:44.213Z;0;9.4240e-01;0;     0.114;  1570.408;   8857.684; 0;   8717.360;   8857.684;   9537.856;   7967.448;  8;   7.475;  56.605;  61.206;;  70.668;  41.188;  13.154; -19.523; -19.797;   8.414;   7.480;   6.726;   2.097;  -2.498;;;;;;;;;;;;;;;;;;
2005-05-20T19:53:00.213Z;0;9.4590e-01;0;     0.116;  1575.756;   8874.710; 0;   8733.697;   8874.710;   9557.041;   7981.285;  8;   7.473;  56.737;  61.336;;  70.798;  41.319;  13.156; -19.520; -19.794;   8.412;   7.478;   6.723;   2.099;  -2.497;;;;;;;;;;;;;;;;;;
2005-05-20T19:53:16.213Z;0;9.7220e-01;0;     0.113;  1575.756;   8993.546; 0;   8854.426;   8993.546;   9677.288;   8101.532;  8;   7.470;  56.869;  61.465;;  70.929;  41.451;  13.157; -19.517; -19.791;   8.409;   7.476;   6.721;   2.100;  -2.496;;;;;;;;;;;;;;;;;;
2005-05-20T19:53:32.213Z;0;9.7800e-01;0;     0.112;  1575.756;   9019.298; 0;   8880.581;   9019.298;   9703.341;   8127.585;  8;   7.468;  57.001;  61.595;;  71.059;  41.582;  13.158; -19.514; -19.788;   8.406;   7.474;   6.718;   2.102;  -2.495;;;;;;;;;;;;;;;;;;
2005-05-20T19:53:48.213Z;0;9.3020e-01;0;     0.112;  1575.756;   8803.141; 0;   8660.963;   8803.141;   9484.604;   7908.847;  8;   7.466;  57.132;  61.725;;  71.190;  41.714;  13.159; -19.511; -19.785;   8.403;   7.471;   6.716;   2.104;  -2.494;;;;;;;;;;;;;;;;;;
2005-05-20T19:54:04.213Z;0;9.5620e-01;0;     0.118;  1581.524;   8922.548; 0;   8781.267;   8922.548;   9607.562;   8026.037;  8;   7.464;  57.264;  61.855;;  71.321;  41.845;  13.161; -19.507; -19.782;   8.401;   7.469;   6.713;   2.105;  -2.492;;;;;;;;;;;;;;;;;;
2005-05-20T19:54:20.212Z;0;9.6190e-01;0;     0.115;  1581.524;   8948.198; 0;   8807.328;   8948.198;   9633.519;   8051.994;  8;   7.462;  57.396;  61.985;;  71.451;  41.976;  13.162; -19.504; -19.779;   8.398;   7.467;   6.711;   2.107;  -2.491;;;;;;;;;;;;;;;;;;
2005-05-20T19:54:36.212Z;0;9.2530e-01;0;     0.114;  1581.524;   8781.834; 0;   8638.252;   8781.834;   9465.132;   7883.608;  8;   7.460;  57.528;  62.115;;  71.582;  42.107;  13.163; -19.501; -19.776;   8.395;   7.465;   6.708;   2.108;  -2.490;;;;;;;;;;;;;;;;;;
2005-05-20T19:54:52.212Z;0;9.4540e-01;0;     0.117;  1581.524;   8873.617; 0;   8731.544;   8873.617;   9558.040;   7976.516;  8;   7.458;  57.659;  62.245;;  71.713;  42.238;  13.164; -19.498; -19.773;   8.392;   7.463;   6.706;   2.110;  -2.489;;;;;;;;;;;;;;;;;;
2005-05-20T19:55:08.212Z;0;9.5610e-01;0;     0.117;  1587.432;   8923.182; 0;   8780.845;   8923.182;   9610.360;   8022.928;  8;   7.455;  57.791;  62.375;;  71.844;  42.369;  13.166; -19.495; -19.770;   8.390;   7.461;   6.703;   2.112;  -2.488;;;;;;;;;;;;;;;;;;
2005-05-20T19:55:24.212Z;0;9.3500e-01;0;     0.118;  1587.432;   8827.345; 0;   8683.437;   8827.345;   9513.353;   7925.920;  8;   7.453;  57.923;  62.504;;  71.975;  42.500;  13.167; -19.492; -19.767;   8.387;   7.459;   6.701;   2.113;  -2.487;;;;;;;;;;;;;;;;;;
2005-05-20T19:55:40.212Z;0;9.3640e-01;0;     0.116;  1587.432;   8833.532; 0;   8689.727;   8833.532;   9519.616;   7932.184;  8;   7.451;  58.055;  62.634;;  72.106;  42.630;  13.168; -19.489; -19.764;   8.384;   7.456;   6.698;   2.115;  -2.486;;;;;;;;;;;;;;;;;;
2005-05-20T19:55:56.212Z;0;9.3970e-01;0;     0.117;  1587.432;   8848.667; 0;   8705.111;   8848.667;   9534.938;   7947.505;  8;   7.449;  58.186;  62.764;;  72.237;  42.761;  13.169; -19.486; -19.761;   8.382;   7.454;   6.696;   2.116;  -2.485;;;;;;;;;;;;;;;;;;
2005-05-20T19:56:12.212Z;0;9.3230e-01;0;     0.117;  1592.724;   8815.819; 0;   8670.750;   8815.819;   9503.605;   7910.882;  8;   7.447;  58.318;  62.894;;  72.368;  42.892;  13.170; -19.483; -19.758;   8.379;   7.452;   6.693;   2.118;  -2.484;;;;;;;;;;;;;;;;;;
2005-05-20T19:56:28.212Z;0;9.5570e-01;0;     0.117;  1592.724;   8921.999; 0;   8778.685;   8921.999;   9611.094;   8018.370;  8;   7.445;  58.450;  63.024;;  72.499;  43.022;  13.172; -19.479; -19.755;   8.376;   7.450;   6.691;   2.119;  -2.483;;;;;;;;;;;;;;;;;;
2005-05-20T19:56:44.212Z;0;9.3870e-01;0;     0.121;  1592.724;   8844.817; 0;   8700.231;   8844.817;   9532.964;   7940.240;  8;   7.442;  58.581;  63.153;;  72.631;  43.153;  13.173; -19.476; -19.752;   8.373;   7.448;   6.688;   2.121;  -2.481;;;;;;;;;;;;;;;;;;
2005-05-20T19:57:00.211Z;0;9.1690e-01;0;     0.115;  1598.184;   8745.969; 0;   8598.708;   8745.969;   9434.851;   7836.667;  8;   7.440;  58.713;  63.283;;  72.762;  43.283;  13.174; -19.473; -19.749;   8.371;   7.446;   6.686;   2.123;  -2.480;;;;;;;;;;;;;;;;;;
2005-05-20T19:57:16.211Z;0;9.1350e-01;0;     0.116;  1598.184;   8730.511; 0;   8582.984;   8730.511;   9419.195;   7821.011;  8;   7.438;  58.845;  63.413;;  72.893;  43.413;  13.175; -19.470; -19.746;   8.368;   7.444;   6.683;   2.124;  -2.479;;;;;;;;;;;;;;;;;;
2005-05-20T19:57:32.211Z;0;9.1850e-01;0;     0.117;  1598.184;   8753.219; 0;   8606.082;   8753.219;   9442.193;   7844.009;  8;   7.436;  58.976;  63.543;;  73.025;  43.543;  13.177; -19.467; -19.743;   8.365;   7.441;   6.681;   2.126;  -2.478;;;;;;;;;;;;;;;;;;
2005-05-20T19:57:48.211Z;0;9.0930e-01;0;     0.115;  1598.184;   8710.716; 0;   8562.849;   8710.716;   9399.146;   7800.962;  8;   7.434;  59.108;  63.672;;  73.156;  43.673;  13.178; -19.464; -19.740;   8.362;   7.439;   6.678;   2.127;  -2.477;;;;;;;;;;;;;;;;;;
2005-05-20T19:58:04.211Z;0;9.0800e-01;0;     0.118;  1602.524;   8705.922; 0;   8557.160;   8705.922;   9395.854;   7793.330;  8;   7.432;  59.240;  63.802;;  73.288;  43.803;  13.179; -19.460; -19.737;   8.360;   7.437;   6.676;   2.129;  -2.476;;;;;;;;;;;;;;;;;;
2005-05-20T19:58:20.211Z;0;9.0750e-01;0;     0.117;  1602.524;   8703.337; 0;   8554.530;   8703.337;   9393.235;   7790.711;  8;   7.430;  59.371;  63.932;;  73.419;  43.933;  13.180; -19.457; -19.733;   8.357;   7.435;   6.673;   2.131;  -2.475;;;;;;;;;;;;;;;;;;
2005-05-20T19:58:36.211Z;0;9.2560e-01;0;     0.123;  1602.524;   8786.966; 0;   8639.600;   8786.966;   9477.938;   7875.414;  8;   7.427;  59.503;  64.062;;  73.551;  44.063;  13.182; -19.454; -19.730;   8.354;   7.433;   6.671;   2.132;  -2.474;;;;;;;;;;;;;;;;;;
2005-05-20T19:59:08.211Z;0;9.3410e-01;0;     0.137;  1606.836;   8826.359; 0;   8678.865;   8826.359;   9519.391;   7912.555;  8;   7.423;  59.766;  64.321;;  73.815;  44.323;  13.184; -19.448; -19.724;   8.349;   7.428;   6.666;   2.135;  -2.471;;;;;;;;;;;;;;;;;;
2005-05-20T19:59:24.210Z;0;9.2190e-01;0;     0.134;  1606.836;   8770.798; 0;   8622.354;   8770.798;   9463.121;   7856.285;  8;   7.421;  59.897;  64.451;;  73.947;  44.452;  13.185; -19.445; -19.721;   8.346;   7.426;   6.664;   2.137;  -2.470;;;;;;;;;;;;;;;;;;
2005-05-20T19:59:40.210Z;0;9.3270e-01;0;     0.137;  1606.836;   8819.938; 0;   8672.335;   8819.938;   9512.889;   7906.052;  8;   7.419;  60.029;  64.580;;  74.079;  44.582;  13.186; -19.441; -19.718;   8.343;   7.424;   6.661;   2.139;  -2.469;;;;;;;;;;;;;;;;;;
2005-05-20T19:59:56.210Z;0;9.4750e-01;0;     0.163;  1606.836;   8887.558; 0;   8741.096;   8887.558;   9581.358;   7974.522;  8;   7.417;  60.161;  64.710;;  74.211;  44.711;  13.188; -19.438; -19.715;   8.340;   7.422;   6.659;   2.140;  -2.468;;;;;;;;;;;;;;;;;;
2005-05-20T20:00:12.210Z;0;9.4330e-01;0;     0.159;  1611.456;   8869.277; 0;   8721.656;   8869.277;   9564.522;   7953.067;  8;   7.414;  60.292;  64.840;;  74.341;  44.843;  13.189; -19.435; -19.712;   8.338;   7.420;   6.656;   2.142;  -2.467;;;;;;;;;;;;;;;;;;
2005-05-20T20:00:28.210Z;0;9.3650e-01;0;     0.153;  1611.456;   8838.219; 0;   8690.070;   8838.219;   9533.071;   7921.615;  8;   7.412;  60.424;  64.969;;  74.470;  44.975;  13.190; -19.432; -19.709;   8.335;   7.418;   6.654;   2.143;  -2.466;;;;;;;;;;;;;;;;;;
2005-05-20T20:00:44.210Z;0;9.3930e-01;0;     0.149;  1611.456;   8851.137; 0;   8703.208;   8851.137;   9546.153;   7934.697;  8;   7.410;  60.555;  65.099;;  74.599;  45.107;  13.191; -19.429; -19.706;   8.332;   7.416;   6.651;   2.145;  -2.465;;;;;;;;;;;;;;;;;;
2005-05-20T20:01:00.210Z;0;9.5130e-01;0;     0.168;  1616.244;   8906.470; 0;   8758.594;   8906.470;   9603.918;   7987.673;  8;   7.408;  60.687;  65.229;;  74.728;  45.239;  13.193; -19.425; -19.702;   8.329;   7.413;   6.649;   2.146;  -2.464;;;;;;;;;;;;;;;;;;
2005-05-20T20:01:16.210Z;0;9.4450e-01;0;     0.185;  1616.244;   8875.498; 0;   8727.097;   8875.498;   9572.555;   7956.311;  8;   7.406;  60.818;  65.358;;  74.857;  45.372;  13.194; -19.422; -19.699;   8.327;   7.411;   6.646;   2.148;  -2.463;;;;;;;;;;;;;;;;;;
2005-05-20T20:01:32.210Z;0;9.4560e-01;0;     0.202;  1616.244;   8880.518; 0;   8732.202;   8880.518;   9577.638;   7961.394;  8;   7.404;  60.950;  65.488;;  74.986;  45.504;  13.195; -19.419; -19.696;   8.324;   7.409;   6.644;   2.150;  -2.462;;;;;;;;;;;;;;;;;;
2005-05-20T20:01:48.210Z;0;9.5390e-01;0;     0.192;  1616.244;   8918.330; 0;   8770.653;   8918.330;   9615.927;   7999.683;  8;   7.402;  61.081;  65.617;;  75.115;  45.636;  13.196; -19.416; -19.693;   8.321;   7.407;   6.641;   2.151;  -2.460;;;;;;;;;;;;;;;;;;
2005-05-20T20:02:04.209Z;0;9.9450e-01;0;     0.313;  1621.312;   9100.762; 0;   8955.178;   9100.762;   9802.451;   8181.139;  8;   7.399;  61.213;  65.747;;  75.244;  45.769;  13.198; -19.413; -19.690;   8.318;   7.405;   6.639;   2.153;  -2.459;;;;;;;;;;;;;;;;;;
2005-05-20T20:02:20.209Z;0;9.7060e-01;0;     0.264;  1621.312;   8994.262; 0;   8846.926;   8994.262;   9694.645;   8073.333;  8;   7.397;  61.344;  65.877;;  75.373;  45.901;  13.199; -19.409; -19.687;   8.316;   7.403;   6.636;   2.154;  -2.458;;;;;;;;;;;;;;;;;;
2005-05-20T20:02:36.209Z;0;1.0220e+00;0;     0.375;  1621.312;   9220.464; 0;   9076.800;   9220.464;   9923.584;   8302.272;  8;   7.395;  61.475;  66.006;;  75.501;  46.034;  13.200; -19.406; -19.684;   8.313;   7.401;   6.634;   2.156;  -2.457;;;;;;;;;;;;;;;;;;
2005-05-20T20:02:52.209Z;0;1.0970e+00;0;     0.371;  1621.312;   9545.106; 0;   9406.402;   9545.106;  10251.926;   8630.613;  8;   7.393;  61.607;  66.136;;  75.630;  46.167;  13.201; -19.403; -19.681;   8.310;   7.398;   6.631;   2.157;  -2.456;;;;;;;;;;;;;;;;;;
2005-05-20T20:03:08.209Z;0;9.9450e-01;0;     0.370;  1626.184;   9101.658; 0;   8955.206;   9101.658;   9805.135;   8178.950;  8;   7.391;  61.738;  66.265;;  75.758;  46.299;  13.203; -19.400; -19.677;   8.307;   7.396;   6.629;   2.159;  -2.455;;;;;;;;;;;;;;;;;;
2005-05-20T20:03:24.209Z;0;1.0180e+00;0;     0.358;  1626.184;   9203.897; 0;   9059.098;   9203.897;   9908.605;   8282.422;  8;   7.389;  61.870;  66.395;;  75.887;  46.432;  13.204; -19.396; -19.674;   8.305;   7.394;   6.626;   2.161;  -2.454;;;;;;;;;;;;;;;;;;
2005-05-20T20:03:40.209Z;0;1.1140e+00;0;     0.385;  1626.184;   9615.923; 0;   9477.421;   9615.923;  10325.327;   8699.144;  8;   7.387;  62.001;  66.524;;  76.015;  46.565;  13.205; -19.393; -19.671;   8.302;   7.392;   6.624;   2.162;  -2.453;;;;;;;;;;;;;;;;;;
2005-05-20T20:03:56.209Z;0;1.1060e+00;0;     0.364;  1626.184;   9584.534; 0;   9445.571;   9584.534;  10293.595;   8667.411;  8;   7.384;  62.133;  66.654;;  76.143;  46.698;  13.206; -19.390; -19.668;   8.299;   7.390;   6.621;   2.164;  -2.452;;;;;;;;;;;;;;;;;;
2005-05-20T20:04:12.209Z;0;1.1480e+00;0;     0.413;  1630.888;   9760.444; 0;   9623.226;   9760.444;  10473.157;   8842.270;  8;   7.382;  62.264;  66.783;;  76.271;  46.831;  13.208; -19.387; -19.665;   8.296;   7.388;   6.618;   2.165;  -2.450;;;;;;;;;;;;;;;;;;
2005-05-20T20:04:28.209Z;0;1.1110e+00;0;     0.340;  1630.888;   9603.758; 0;   9464.268;   9603.758;  10314.776;   8683.889;  8;   7.380;  62.395;  66.913;;  76.399;  46.964;  13.209; -19.383; -19.662;   8.294;   7.385;   6.616;   2.167;  -2.449;;;;;;;;;;;;;;;;;;
2005-05-20T20:05:48.208Z;0;1.1040e+00;0;     0.412;  1635.368;   9574.512; 0;   9433.814;   9574.512;  10286.868;   8651.500;  8;   7.369;  63.052;  67.560;;  77.038;  47.630;  13.215; -19.367; -19.646;   8.280;   7.375;   6.603;   2.175;  -2.444;;;;;;;;;;;;;;;;;;
2005-05-20T20:06:36.208Z;0;1.0070e+00;0;     0.396;  1640.520;   9160.902; 0;   9012.814;   9160.902;   9870.323;   8229.804;  8;   7.363;  63.446;  67.948;;  77.421;  48.031;  13.219; -19.357; -19.636;   8.272;   7.368;   6.596;   2.180;  -2.440;;;;;;;;;;;;;;;;;;
2005-05-20T20:06:52.208Z;0;1.0640e+00;0;     0.423;  1640.520;   9405.096; 0;   9260.913;   9405.096;  10117.429;   8476.909;  8;   7.361;  63.577;  68.078;;  77.548;  48.164;  13.220; -19.354; -19.633;   8.269;   7.366;   6.593;   2.181;  -2.439;;;;;;;;;;;;;;;;;;
2005-05-20T20:07:08.208Z;0;1.0860e+00;0;     0.392;  1646.008;   9500.449; 0;   9356.772;   9500.449;  10215.901;   8569.894;  8;   7.359;  63.709;  68.207;;  77.675;  48.298;  13.221; -19.351; -19.630;   8.266;   7.364;   6.591;   2.183;  -2.438;;;;;;;;;;;;;;;;;;
2005-05-20T20:07:24.207Z;0;1.1100e+00;0;     0.407;  1646.008;   9602.161; 0;   9460.029;   9602.161;  10318.766;   8672.758;  8;   7.356;  63.840;  68.337;;  77.803;  48.431;  13.223; -19.347; -19.627;   8.263;   7.362;   6.588;   2.184;  -2.437;;;;;;;;;;;;;;;;;;
2005-05-20T20:08:12.207Z;0;9.7880e-01;0;     0.288;  1651.804;   9036.345; 0;   8884.091;   9036.345;   9748.300;   8096.496;  8;   7.350;  64.234;  68.725;;  78.184;  48.833;  13.227; -19.338; -19.617;   8.255;   7.355;   6.581;   2.189;  -2.434;;;;;;;;;;;;;;;;;;
2005-05-20T20:09:48.207Z;0;1.0670e+00;0;     0.467;  1658.356;   9421.017; 0;   9273.910;   9421.017;  10140.083;   8481.727;  8;   7.337;  65.021;  69.500;;  78.943;  49.638;  13.234; -19.318; -19.597;   8.239;   7.342;   6.566;   2.199;  -2.427;;;;;;;;;;;;;;;;;;
2005-05-20T20:11:08.206Z;0;1.1540e+00;0;     0.367;  1669.696;   9791.368; 0;   9647.953;   9791.368;  10518.854;   8849.158;  8;   7.326;  65.676;  70.147;;  79.587;  50.303;  13.240; -19.301; -19.581;   8.225;   7.332;   6.553;   2.206;  -2.422;;;;;;;;;;;;;;;;;;
2005-05-20T20:11:40.206Z;0;1.1080e+00;0;     0.308;  1669.696;   9600.721; 0;   9454.414;   9600.721;  10326.051;   8656.354;  8;   7.322;  65.939;  70.405;;  79.846;  50.569;  13.243; -19.294; -19.575;   8.219;   7.327;   6.548;   2.210;  -2.419;;;;;;;;;;;;;;;;;;
2005-05-20T20:11:56.206Z;0;1.1190e+00;0;     0.285;  1669.696;   9645.765; 0;   9500.152;   9645.765;  10371.611;   8701.916;  8;   7.320;  66.070;  70.534;;  79.975;  50.702;  13.244; -19.291; -19.571;   8.216;   7.325;   6.545;   2.211;  -2.418;;;;;;;;;;;;;;;;;;
2005-05-20T20:12:12.206Z;0;1.1600e+00;0;     0.334;  1674.288;   9817.049; 0;   9673.221;   9817.049;  10546.521;   8872.233;  8;   7.318;  66.201;  70.664;;  80.105;  50.835;  13.245; -19.287; -19.568;   8.214;   7.323;   6.543;   2.213;  -2.417;;;;;;;;;;;;;;;;;;
2005-05-20T20:12:28.205Z;0;1.1950e+00;0;     0.405;  1674.288;   9958.466; 0;   9816.710;   9958.466;  10689.484;   9015.196;  8;   7.315;  66.332;  70.793;;  80.234;  50.968;  13.247; -19.284; -19.565;   8.211;   7.321;   6.540;   2.214;  -2.416;;;;;;;;;;;;;;;;;;
2005-05-20T20:12:44.205Z;0;1.1720e+00;0;     0.388;  1674.288;   9864.233; 0;   9721.104;   9864.233;  10594.228;   8919.939;  8;   7.313;  66.463;  70.922;;  80.364;  51.101;  13.248; -19.281; -19.562;   8.208;   7.319;   6.538;   2.216;  -2.415;;;;;;;;;;;;;;;;;;
2005-05-20T20:16:28.204Z;0;1.2730e+00;0;     0.394;  1696.436;  10271.297; 0;  10130.234;  10271.297;  11013.901;   9317.465;  8;   7.283;  68.297;  72.729;;  82.184;  52.960;  13.266; -19.233; -19.515;   8.170;   7.288;   6.502;   2.238;  -2.399;;;;;;;;;;;;;;;;;;
2005-05-20T20:16:44.204Z;0;1.3420e+00;0;     0.383;  1696.436;  10540.534; 0;  10403.123;  10540.534;  11285.863;   9589.428;  8;   7.281;  68.427;  72.858;;  82.315;  53.093;  13.267; -19.230; -19.512;   8.167;   7.286;   6.500;   2.239;  -2.398;;;;;;;;;;;;;;;;;;
2005-05-20T20:17:16.204Z;0;1.3150e+00;0;     0.402;  1703.520;  10437.187; 0;  10297.227;  10437.187;  11184.154;   9480.635;  8;   7.277;  68.689;  73.116;;  82.576;  53.359;  13.270; -19.223; -19.505;   8.161;   7.282;   6.495;   2.242;  -2.396;;;;;;;;;;;;;;;;;;
2005-05-20T20:17:32.204Z;0;1.3490e+00;0;     0.240;  1703.520;  10566.607; 0;  10428.385;  10566.607;  11314.872;   9611.352;  8;   7.274;  68.820;  73.245;;  82.707;  53.491;  13.271; -19.219; -19.502;   8.159;   7.280;   6.492;   2.244;  -2.395;;;;;;;;;;;;;;;;;;
2005-05-20T20:17:48.203Z;0;1.3010e+00;0;     0.235;  1703.520;  10384.834; 0;  10244.159;  10384.834;  11131.269;   9427.748;  8;   7.272;  68.951;  73.374;;  82.837;  53.624;  13.272; -19.216; -19.498;   8.156;   7.278;   6.490;   2.246;  -2.394;;;;;;;;;;;;;;;;;;